2016-02-29 00:01:40 r, 20.35m,0000000001Hz,0000746945c,0000001.621s,-001.3C,00002191
2016-02-29 00:11:39 r, 20.34m,0000000000Hz,0000739002c,0000001.604s,-001.7C,00002191
2016-02-29 00:21:39 r, 20.30m,0000000001Hz,0000715191c,0000001.552s,-002.0C,00002191
2016-02-29 00:31:39 r, 20.24m,0000000001Hz,0000683461c,0000001.483s,-002.0C,00002191
2016-02-29 00:41:39 r, 20.21m,0000000001Hz,0000662193c,0000001.437s,-002.3C,00002191
2016-02-29 00:51:39 r, 20.13m,0000000000Hz,0000616190c,0000001.337s,-002.6C,00002191
2016-02-29 01:01:39 r, 20.03m,0000000001Hz,0000564676c,0000001.225s,-002.6C,00002191
2016-02-29 01:11:38 r, 20.00m,0000000000Hz,0000545228c,0000001.183s,-002.6C,00002191
2016-02-29 01:21:39 r, 20.00m,0000000001Hz,0000544330c,0000001.181s,-003.0C,00002191
2016-02-29 01:31:39 r, 19.97m,0000000001Hz,0000530976c,0000001.152s,-003.3C,00002191
2016-02-29 01:41:39 r, 19.94m,0000000001Hz,0000513540c,0000001.114s,-003.6C,00002191
2016-02-29 01:51:39 r, 19.90m,0000000001Hz,0000494369c,0000001.073s,-003.9C,00002191
2016-02-29 02:01:40 r, 19.88m,0000000001Hz,0000486642c,0000001.056s,-004.2C,00002191
2016-02-29 02:11:38 r, 19.84m,0000000001Hz,0000468465c,0000001.017s,-004.9C,00002191
2016-02-29 02:21:39 r, 19.82m,0000000001Hz,0000459914c,0000000.998s,-005.2C,00002191
2016-02-29 02:31:40 r, 19.80m,0000000001Hz,0000453106c,0000000.983s,-005.5C,00002191
2016-02-29 02:41:38 r, 19.78m,0000000001Hz,0000446439c,0000000.969s,-005.9C,00002191
2016-02-29 02:51:38 r, 19.77m,0000000001Hz,0000439630c,0000000.954s,-006.2C,00002191
2016-02-29 03:01:40 r, 19.75m,0000000001Hz,0000432974c,0000000.940s,-006.2C,00002191
2016-02-29 03:11:38 r, 19.74m,0000000001Hz,0000426191c,0000000.925s,-006.5C,00002191
2016-02-29 03:21:38 r, 19.72m,0000000001Hz,0000418563c,0000000.908s,-006.8C,00002191
2016-02-29 03:31:41 r, 19.70m,0000000001Hz,0000410927c,0000000.892s,-007.1C,00002191
2016-02-29 03:41:39 r, 19.68m,0000000001Hz,0000406021c,0000000.881s,-007.1C,00002191
2016-02-29 03:51:39 r, 19.68m,0000000001Hz,0000405050c,0000000.879s,-007.5C,00002191
2016-02-29 04:01:40 r, 19.67m,0000000002Hz,0000401263c,0000000.871s,-007.5C,00002191
2016-02-29 04:11:39 r, 19.66m,0000000001Hz,0000398122c,0000000.864s,-007.5C,00002191
2016-02-29 04:21:38 r, 19.65m,0000000001Hz,0000393689c,0000000.854s,-007.8C,00002191
2016-02-29 04:31:38 r, 19.64m,0000000001Hz,0000390962c,0000000.848s,-007.8C,00002191
2016-02-29 04:41:39 r, 19.64m,0000000001Hz,0000389848c,0000000.846s,-008.1C,00002191
2016-02-29 04:51:39 r, 19.65m,0000000001Hz,0000391553c,0000000.850s,-008.1C,00002191
2016-02-29 05:01:40 r, 19.63m,0000000001Hz,0000385190c,0000000.836s,-008.1C,00002191
2016-02-29 05:11:39 r, 19.61m,0000000001Hz,0000383157c,0000000.832s,-008.4C,00002191
2016-02-29 05:21:39 r, 19.61m,0000000001Hz,0000382189c,0000000.829s,-008.4C,00002191
2016-02-29 05:31:40 r, 19.61m,0000000001Hz,0000382189c,0000000.829s,-008.4C,00002191
2016-02-29 05:41:39 r, 19.65m,0000000001Hz,0000398492c,0000000.865s,-008.8C,00002191
2016-02-29 05:51:39 r, 19.55m,0000000001Hz,0000362067c,0000000.786s,-008.8C,00002191
2016-02-29 06:01:39 r, 19.15m,0000000002Hz,0000250545c,0000000.544s,-008.8C,00002191
2016-02-29 06:11:39 r, 18.19m,0000000004Hz,0000103734c,0000000.225s,-008.8C,00002191
2016-02-29 06:21:39 r, 16.77m,0000000016Hz,0000028108c,0000000.061s,-009.1C,00002191
2016-02-29 06:31:38 r, 14.95m,0000000086Hz,0000005279c,0000000.011s,-009.1C,00002191
2016-02-29 06:41:38 r, 12.77m,0000000663Hz,0000000000c,0000000.000s,-009.4C,00002191
2016-02-29 06:51:39 r, 10.61m,0000004808Hz,0000000000c,0000000.000s,-009.4C,00002191
2016-02-29 07:01:40 r, 08.86m,0000024200Hz,0000000000c,0000000.000s,-009.4C,00002191
2016-02-29 07:11:38 r, 07.60m,0000077428Hz,0000000000c,0000000.000s,-009.4C,00002191
2016-02-29 07:21:39 r, 06.75m,0000169497Hz,0000000000c,0000000.000s,-009.4C,00002191
2016-02-29 07:31:38 r, 06.17m,0000287119Hz,0000000000c,0000000.000s,-009.1C,00002191
2016-02-29 07:41:38 r, 00.00m,0000414531Hz,0000000000c,0000000.000s,-007.8C,00002191
2016-02-29 07:51:39 r, 00.00m,0000541304Hz,0000000000c,0000000.000s,-006.5C,00002191
2016-02-29 08:01:39 r, 00.00m,0000598153Hz,0000000000c,0000000.000s,-005.2C,00002191
2016-02-29 08:11:41 r, 00.00m,0000597985Hz,0000000000c,0000000.000s,-004.9C,00002191
2016-02-29 08:21:39 r, 00.00m,0000598064Hz,0000000000c,0000000.000s,-004.2C,00002191
2016-02-29 08:31:39 r, 00.00m,0000597888Hz,0000000000c,0000000.000s,-003.9C,00002191
2016-02-29 08:41:38 r, 00.00m,0000598019Hz,0000000000c,0000000.000s,-003.0C,00002191
2016-02-29 08:51:38 r, 00.00m,0000597789Hz,0000000000c,0000000.000s,-002.3C,00002191
2016-02-29 09:01:39 r, 00.00m,0000597701Hz,0000000000c,0000000.000s,-001.3C,00002191
2016-02-29 09:11:38 r, 00.00m,0000597632Hz,0000000000c,0000000.000s,-001.0C,00002191
2016-02-29 09:21:39 r, 00.00m,0000597628Hz,0000000000c,0000000.000s,-001.0C,00002191
2016-02-29 09:31:38 r, 00.00m,0000597717Hz,0000000000c,0000000.000s,-000.7C,00002191
2016-02-29 09:41:38 r, 00.00m,0000597567Hz,0000000000c,0000000.000s, 000.1C,00002191
2016-02-29 09:51:38 r, 00.00m,0000597527Hz,0000000000c,0000000.000s, 000.3C,00002191
2016-02-29 10:01:38 r, 00.00m,0000597613Hz,0000000000c,0000000.000s, 000.6C,00002191
2016-02-29 10:11:38 r, 00.00m,0000597456Hz,0000000000c,0000000.000s, 001.2C,00002191
2016-02-29 10:21:39 r, 00.00m,0000597334Hz,0000000000c,0000000.000s, 001.9C,00002191
2016-02-29 10:31:38 r, 00.00m,0000597392Hz,0000000000c,0000000.000s, 001.9C,00002191
2016-02-29 10:41:38 r, 00.00m,0000597444Hz,0000000000c,0000000.000s, 002.2C,00002191
2016-02-29 10:51:38 r, 00.00m,0000597278Hz,0000000000c,0000000.000s, 003.2C,00002191
2016-02-29 11:01:38 r, 00.00m,0000597256Hz,0000000000c,0000000.000s, 003.8C,00002191
2016-02-29 11:11:38 r, 00.00m,0000597142Hz,0000000000c,0000000.000s, 004.1C,00002191
2016-02-29 11:21:39 r, 00.00m,0000597171Hz,0000000000c,0000000.000s, 004.8C,00002191
2016-02-29 11:31:39 r, 00.00m,0000597193Hz,0000000000c,0000000.000s, 005.4C,00002191
2016-02-29 11:41:38 r, 00.00m,0000597145Hz,0000000000c,0000000.000s, 005.4C,00002191
2016-02-29 11:51:38 r, 00.00m,0000597007Hz,0000000000c,0000000.000s, 005.8C,00002191
2016-02-29 12:01:38 r, 00.00m,0000596990Hz,0000000000c,0000000.000s, 006.1C,00002191
2016-02-29 12:11:39 r, 00.00m,0000597035Hz,0000000000c,0000000.000s, 006.4C,00002191
2016-02-29 12:21:39 r, 00.00m,0000596983Hz,0000000000c,0000000.000s, 006.4C,00002191
2016-02-29 12:31:39 r, 00.00m,0000596880Hz,0000000000c,0000000.000s, 006.7C,00002191
2016-02-29 12:41:40 r, 00.00m,0000596963Hz,0000000000c,0000000.000s, 006.7C,00002191
2016-02-29 12:51:38 r, 00.00m,0000596931Hz,0000000000c,0000000.000s, 007.0C,00002191
2016-02-29 13:01:38 r, 00.00m,0000596819Hz,0000000000c,0000000.000s, 007.4C,00002191
2016-02-29 13:11:38 r, 00.00m,0000596822Hz,0000000000c,0000000.000s, 007.7C,00002191
2016-02-29 13:21:38 r, 00.00m,0000596904Hz,0000000000c,0000000.000s, 007.7C,00002191
2016-02-29 13:31:38 r, 00.00m,0000596898Hz,0000000000c,0000000.000s, 007.0C,00002191
2016-02-29 13:41:39 r, 00.00m,0000596963Hz,0000000000c,0000000.000s, 006.4C,00002191
2016-02-29 13:51:38 r, 00.00m,0000597113Hz,0000000000c,0000000.000s, 005.8C,00002191
2016-02-29 14:01:38 r, 00.00m,0000597003Hz,0000000000c,0000000.000s, 005.8C,00002191
2016-02-29 14:11:40 r, 00.00m,0000596977Hz,0000000000c,0000000.000s, 006.7C,00002191
2016-02-29 14:21:38 r, 00.00m,0000597081Hz,0000000000c,0000000.000s, 005.8C,00002191
2016-02-29 14:31:38 r, 00.00m,0000597188Hz,0000000000c,0000000.000s, 004.8C,00002191
2016-02-29 14:41:38 r, 00.00m,0000597171Hz,0000000000c,0000000.000s, 004.5C,00002191
2016-02-29 14:51:39 r, 00.00m,0000597219Hz,0000000000c,0000000.000s, 004.1C,00002191
2016-02-29 15:01:38 r, 00.00m,0000597168Hz,0000000000c,0000000.000s, 004.1C,00002191
2016-02-29 15:11:39 r, 00.00m,0000597295Hz,0000000000c,0000000.000s, 004.5C,00002191
2016-02-29 15:21:38 r, 00.00m,0000597139Hz,0000000000c,0000000.000s, 004.8C,00002191
2016-02-29 15:31:39 r, 00.00m,0000597215Hz,0000000000c,0000000.000s, 004.8C,00002191
2016-02-29 15:41:38 r, 00.00m,0000597188Hz,0000000000c,0000000.000s, 004.8C,00002191
2016-02-29 15:51:38 r, 00.00m,0000597072Hz,0000000000c,0000000.000s, 005.4C,00002191
2016-02-29 16:01:39 r, 00.00m,0000597112Hz,0000000000c,0000000.000s, 005.1C,00002191
2016-02-29 16:11:39 r, 00.00m,0000597286Hz,0000000000c,0000000.000s, 003.8C,00002191
2016-02-29 16:21:38 r, 00.00m,0000597421Hz,0000000000c,0000000.000s, 002.2C,00002191
2016-02-29 16:31:39 r, 00.00m,0000597505Hz,0000000000c,0000000.000s, 001.2C,00002191
2016-02-29 16:41:39 r, 00.00m,0000597447Hz,0000000000c,0000000.000s, 001.6C,00002191
2016-02-29 16:51:38 r, 00.00m,0000597477Hz,0000000000c,0000000.000s, 001.6C,00002191
2016-02-29 17:01:38 r, 00.00m,0000597399Hz,0000000000c,0000000.000s, 002.5C,00002191
2016-02-29 17:11:38 r, 00.00m,0000597377Hz,0000000000c,0000000.000s, 002.5C,00002191
2016-02-29 17:21:38 r, 00.00m,0000597406Hz,0000000000c,0000000.000s, 001.9C,00002191
2016-02-29 17:31:38 r, 00.00m,0000597478Hz,0000000000c,0000000.000s, 001.2C,00002191
2016-02-29 17:41:38 r, 00.00m,0000597704Hz,0000000000c,0000000.000s, 000.3C,00002191
2016-02-29 17:51:39 r, 05.97m,0000347070Hz,0000000000c,0000000.000s,-000.7C,00002191
2016-02-29 18:01:38 r, 06.82m,0000157930Hz,0000000000c,0000000.000s,-001.7C,00002191
2016-02-29 18:11:40 r, 07.69m,0000071251Hz,0000000000c,0000000.000s,-002.6C,00002191
2016-02-29 18:21:38 r, 08.98m,0000021714Hz,0000000000c,0000000.000s,-003.6C,00002191
2016-02-29 18:31:38 r, 10.78m,0000004124Hz,0000000000c,0000000.000s,-004.2C,00002191
2016-02-29 18:41:39 r, 12.98m,0000000546Hz,0000000000c,0000000.000s,-004.9C,00002191
2016-02-29 18:51:38 r, 15.10m,0000000077Hz,0000005995c,0000000.013s,-005.2C,00002191
2016-02-29 19:01:39 r, 16.73m,0000000017Hz,0000026969c,0000000.059s,-005.5C,00002191
2016-02-29 19:11:38 r, 18.30m,0000000005Hz,0000113334c,0000000.246s,-005.5C,00002191
2016-02-29 19:21:39 r, 19.23m,0000000001Hz,0000267647c,0000000.581s,-005.9C,00002191
2016-02-29 19:31:38 r, 19.50m,0000000001Hz,0000344437c,0000000.747s,-006.2C,00002191
2016-02-29 19:41:38 r, 19.74m,0000000001Hz,0000428097c,0000000.929s,-006.5C,00002191
2016-02-29 19:51:38 r, 20.02m,0000000001Hz,0000556752c,0000001.208s,-006.5C,00002191
2016-02-29 20:01:38 r, 20.25m,0000000001Hz,0000686333c,0000001.489s,-006.8C,00002191
2016-02-29 20:11:40 r, 20.27m,0000000000Hz,0000694982c,0000001.508s,-006.8C,00002191
2016-02-29 20:21:38 r, 20.25m,0000000001Hz,0000681634c,0000001.479s,-006.8C,00002191
2016-02-29 20:31:38 r, 20.12m,0000000001Hz,0000602944c,0000001.308s,-007.1C,00002191
2016-02-29 20:41:38 r, 20.23m,0000000001Hz,0000669988c,0000001.454s,-006.8C,00002191
2016-02-29 20:51:38 r, 20.30m,0000000000Hz,0000714026c,0000001.550s,-006.8C,00002191
2016-02-29 21:01:38 r, 20.32m,0000000000Hz,0000726516c,0000001.577s,-006.8C,00002191
2016-02-29 21:11:39 r, 20.33m,0000000001Hz,0000733474c,0000001.592s,-006.8C,00002191
2016-02-29 21:21:38 r, 20.35m,0000000001Hz,0000745057c,0000001.617s,-007.1C,00002191
2016-02-29 21:31:38 r, 20.36m,0000000001Hz,0000751569c,0000001.631s,-007.1C,00002191
2016-02-29 21:41:38 r, 20.36m,0000000000Hz,0000757290c,0000001.643s,-007.1C,00002191
2016-02-29 21:51:38 r, 20.38m,0000000000Hz,0000762001c,0000001.654s,-007.5C,00002191
2016-02-29 22:01:38 r, 20.39m,0000000001Hz,0000772417c,0000001.676s,-007.5C,00002191
2016-02-29 22:11:41 r, 20.40m,0000000001Hz,0000783632c,0000001.701s,-007.8C,00002191
2016-02-29 22:21:38 r, 20.41m,0000000001Hz,0000791297c,0000001.717s,-007.8C,00002191
2016-02-29 22:31:38 r, 20.43m,0000000001Hz,0000799121c,0000001.734s,-007.8C,00002191
2016-02-29 22:41:40 r, 20.43m,0000000000Hz,0000799531c,0000001.735s,-008.1C,00002191
2016-02-29 22:51:38 r, 20.43m,0000000000Hz,0000803281c,0000001.743s,-008.1C,00002191
2016-02-29 23:01:38 r, 20.43m,0000000000Hz,0000805614c,0000001.748s,-008.1C,00002191
2016-02-29 23:11:40 r, 20.43m,0000000000Hz,0000806258c,0000001.750s,-008.1C,00002191
2016-02-29 23:21:38 r, 20.44m,0000000001Hz,0000807049c,0000001.751s,-008.1C,00002191
2016-02-29 23:31:38 r, 20.44m,0000000001Hz,0000809855c,0000001.757s,-008.1C,00002191
2016-02-29 23:41:38 r, 20.43m,0000000000Hz,0000811158c,0000001.760s,-008.4C,00002191
2016-02-29 23:51:38 r, 20.44m,0000000001Hz,0000817087c,0000001.773s,-008.4C,00002191
